KY4JDC Weather Reports


time (UTC)temp
C
wind
direction
speed
KPH
gust
KPH
rain 1hr
cm
rain 24hr
cm
rain mn
cm
humidity
%
barometer
mb
20260906130538 26 40 1.6 1.6 0.00 0.00 0.00 86 1016.4
20260906130033 26 87 0.0 4.8 0.00 0.00 0.00 87 1016.0
20260906125530 26 83 0.0 0.0 0.00 0.00 0.00 87 1016.1
20260906125030 25 48 0.0 1.6 0.00 0.00 0.00 87 1016.2
20260906124526 25 45 1.6 3.2 0.00 0.00 0.00 88 1016.5
20260906124021 25 56 0.0 1.6 0.00 0.00 0.00 88 1016.3
20260906123520 25 37 1.6 1.6 0.00 0.00 0.00 88 1016.1
20260906123016 25 40 0.0 1.6 0.00 0.00 0.00 88 1016.2
20260906122515 25 56 1.6 1.6 0.00 0.00 0.00 88 1016.0
20260906122011 25 44 0.0 1.6 0.00 0.00 0.00 89 1015.9
20260906121508 25 35 1.6 1.6 0.00 0.00 0.00 89 1016.0
20260906121004 25 39 0.0 1.6 0.00 0.00 0.00 89 1015.8
20260906120504 25 41 0.0 1.6 0.00 0.00 0.00 89 1015.9
20260906120001 25 42 0.0 0.0 0.00 0.00 0.00 89 1015.7
20260906115456 25 42 0.0 1.6 0.00 0.00 0.00 89 1015.9
20260906114956 25 42 0.0 0.0 0.00 0.00 0.00 89 1015.8
20260906114450 25 42 0.0 0.0 0.00 0.00 0.00 88 1015.5
20260906113947 25 42 0.0 1.6 0.00 0.00 0.00 88 1015.4
20260906113445 25 44 0.0 1.6 0.00 0.00 0.00 88 1015.3
20260906112941 25 20 1.6 1.6 0.00 0.00 0.00 88 1015.2
20260906112436 25 14 0.0 0.0 0.00 0.00 0.00 88 1015.1
20260906111932 25 14 0.0 0.0 0.00 0.00 0.00 87 1015.2
20260906111431 25 14 0.0 1.6 0.00 0.00 0.00 87 1015.2
20260906110926 25 14 0.0 0.0 0.00 0.00 0.00 87 1015.1
20260906110421 25 14 0.0 0.0 0.00 0.00 0.00 87 1015.2
20260906105920 25 14 0.0 0.0 0.00 0.00 0.00 88 1014.9
20260906105416 25 14 0.0 0.0 0.00 0.00 0.00 88 1014.8
20260906104912 25 14 0.0 0.0 0.00 0.00 0.00 88 1014.9
20260906104410 25 14 0.0 0.0 0.00 0.00 0.00 87 1014.8
20260906103909 25 14 0.0 0.0 0.00 0.00 0.00 87 1014.9
20260906103408 25 14 0.0 0.0 0.00 0.00 0.00 87 1014.6
20260906102904 25 14 0.0 0.0 0.00 0.00 0.00 87 1014.5
20260906102403 25 14 0.0 0.0 0.00 0.00 0.00 86 1014.8
20260906101858 25 14 0.0 0.0 0.00 0.00 0.00 86 1014.7
20260906101353 25 14 0.0 0.0 0.00 0.00 0.00 86 1014.3
20260906100848 25 14 0.0 0.0 0.00 0.00 0.00 86 1014.4
20260906100348 25 14 0.0 0.0 0.00 0.00 0.00 86 1014.3
20260906095843 25 14 0.0 0.0 0.00 0.00 0.00 87 1014.4
20260906095338 25 14 0.0 0.0 0.00 0.00 0.00 87 1014.4
20260906094838 25 14 0.0 0.0 0.00 0.00 0.00 87 1014.4
20260906094333 25 14 0.0 0.0 0.00 0.00 0.00 87 1014.3
20260906093829 25 14 0.0 0.0 0.00 0.00 0.00 88 1014.1
20260906093325 25 14 0.0 0.0 0.00 0.00 0.00 88 1014.1
20260906092820 25 14 0.0 0.0 0.00 0.00 0.00 88 1014.2
20260906092319 25 14 0.0 0.0 0.00 0.00 0.00 88 1014.0
20260906091815 25 14 0.0 0.0 0.00 0.00 0.00 88 1014.1
20260906091311 25 14 0.0 0.0 0.00 0.00 0.00 88 1014.1
20260906090808 25 14 0.0 0.0 0.00 0.00 0.00 88 1014.0
20260906090306 25 14 0.0 0.0 0.00 0.00 0.00 88 1014.1
20260906085807 25 14 0.0 0.0 0.00 0.00 0.00 88 1014.1
20260906085307 25 14 0.0 0.0 0.00 0.00 0.00 88 1014.1
20260906084801 25 14 0.0 0.0 0.00 0.00 0.00 87 1014.0
20260906084300 25 14 0.0 0.0 0.00 0.00 0.00 87 1014.2
20260906083755 25 14 0.0 0.0 0.00 0.00 0.00 87 1013.9
20260906083251 25 14 0.0 0.0 0.00 0.00 0.00 86 1014.0
20260906082745 25 14 0.0 0.0 0.00 0.00 0.00 85 1013.9
20260906082240 25 14 0.0 0.0 0.00 0.00 0.00 85 1014.2
20260906081736 25 14 0.0 0.0 0.00 0.00 0.00 85 1013.9
20260906081231 25 14 0.0 0.0 0.00 0.00 0.00 86 1014.1
20260906080728 25 14 0.0 0.0 0.00 0.00 0.00 86 1014.1
20260906080224 25 14 0.0 0.0 0.00 0.00 0.00 86 1014.0
20260906075718 25 14 0.0 0.0 0.00 0.00 0.00 87 1014.0
20260906075218 25 14 0.0 0.0 0.00 0.00 0.00 87 1013.8
20260906074713 25 14 0.0 0.0 0.00 0.00 0.00 87 1014.0
20260906074212 26 14 0.0 0.0 0.00 0.00 0.00 86 1014.1
20260906073707 26 14 0.0 0.0 0.00 0.00 0.00 85 1014.1
20260906073202 26 14 0.0 0.0 0.00 0.00 0.00 82 1013.8
20260906072657 26 14 0.0 0.0 0.00 0.00 0.00 82 1013.8
20260906072153 26 14 0.0 0.0 0.00 0.00 0.00 81 1013.9